UAE538 OMDB-LIRF

Flight info

Callsign UAE538
Flight time N/A
Altitude 37000
Route ANVIX L223 TARDI N629 BOTAM Y855 LAKLU/N0492F360 Q204 NALKI G652 TOKRA DCT ALROK/N0486F380 DCT BOSOB DCT ITRUX Y511 PMA Z712 WEJ L677 EMOVA/N0482F400 L677 CVO L617 TANSA DCT TRL DCT OSDES UN1 LATAN DCT VEGAN/N0479F410 DCT SOR/N0476F380 DCT TEA DCT SIPRO/N0392F180 Z803 LAT
Aircraft B772/H-SDE2E3FGHIJ5LORVWXY/LB1D1

Departure

Time 2026-05-06 15:38
Airport Dubai International Airport (OMDB)

Arrival

Time N/A
Airport Rome–Fiumicino Leonardo da Vinci International Airport (LIRF)
Time Latitude Longitude Altitude Speed Heading
2026-05-06 14:33 25.25001 55.35709 34 ft 0 kts 31°
2026-05-06 15:20 25.24994 55.35704 33 ft 2 kts 31°
2026-05-06 15:20 25.24981 55.35696 33 ft 2 kts 31°
2026-05-06 15:21 25.24968 55.35688 32 ft 2 kts 31°
2026-05-06 15:21 25.24960 55.35682 32 ft 2 kts 28°
2026-05-06 15:21 25.24946 55.35677 31 ft 2 kts
2026-05-06 15:21 25.24931 55.35677 31 ft 2 kts 347°
2026-05-06 15:22 25.24917 55.35682 31 ft 2 kts 329°
2026-05-06 15:22 25.24905 55.35693 31 ft 2 kts 310°
2026-05-06 15:22 25.24901 55.35699 31 ft 1 kts 303°
2026-05-06 15:22 25.24900 55.35701 31 ft 0 kts 304°
2026-05-06 15:27 25.24913 55.35678 31 ft 7 kts 303°
2026-05-06 15:27 25.24951 55.35617 32 ft 11 kts 304°
2026-05-06 15:28 25.25003 55.35527 33 ft 15 kts 300°
2026-05-06 15:28 25.25068 55.35409 32 ft 20 kts 302°
2026-05-06 15:28 25.25151 55.35266 30 ft 23 kts 308°
2026-05-06 15:28 25.25248 55.35110 28 ft 24 kts 301°
2026-05-06 15:29 25.25333 55.34959 34 ft 21 kts 302°
2026-05-06 15:29 25.25450 55.34900 35 ft 19 kts 15°
2026-05-06 15:29 25.25563 55.34969 36 ft 18 kts 31°
2026-05-06 15:29 25.25656 55.35040 36 ft 10 kts 76°
2026-05-06 15:30 25.25642 55.35120 36 ft 9 kts 109°
2026-05-06 15:30 25.25653 55.35146 36 ft 0 kts 22°
2026-05-06 15:30 25.25658 55.35149 36 ft 3 kts 25°
2026-05-06 15:30 25.25700 55.35174 36 ft 9 kts 31°
2026-05-06 15:31 25.25757 55.35212 37 ft 9 kts 31°
2026-05-06 15:31 25.25820 55.35253 36 ft 11 kts 31°
2026-05-06 15:31 25.25894 55.35303 36 ft 13 kts 32°
2026-05-06 15:32 25.25994 55.35510 39 ft 19 kts 104°
2026-05-06 15:32 25.25923 55.35653 39 ft 23 kts 121°
2026-05-06 15:32 25.25893 55.35707 40 ft 0 kts 122°
2026-05-06 15:32 25.25883 55.35725 40 ft 4 kts 122°
2026-05-06 15:33 25.25853 55.35777 41 ft 11 kts 122°
2026-05-06 15:33 25.25800 55.35873 42 ft 17 kts 121°
2026-05-06 15:33 25.25732 55.35997 42 ft 19 kts 121°
2026-05-06 15:33 25.25663 55.36120 45 ft 18 kts 121°
2026-05-06 15:34 25.25595 55.36244 46 ft 20 kts 121°
2026-05-06 15:34 25.25514 55.36390 46 ft 23 kts 121°
2026-05-06 15:34 25.25424 55.36552 47 ft 25 kts 121°
2026-05-06 15:34 25.25333 55.36717 49 ft 24 kts 121°
2026-05-06 15:35 25.25243 55.36878 50 ft 25 kts 121°
2026-05-06 15:35 25.25150 55.37047 52 ft 25 kts 121°
2026-05-06 15:35 25.25053 55.37221 52 ft 27 kts 121°
2026-05-06 15:35 25.24952 55.37402 53 ft 28 kts 121°
2026-05-06 15:36 25.24853 55.37582 55 ft 27 kts 121°
2026-05-06 15:36 25.24754 55.37761 55 ft 25 kts 122°
2026-05-06 15:36 25.24727 55.37864 56 ft 11 kts 51°
2026-05-06 15:36 25.24742 55.37880 56 ft 0 kts 40°
2026-05-06 15:37 25.24768 55.37901 56 ft 8 kts 35°
2026-05-06 15:37 25.24827 55.37937 57 ft 9 kts
2026-05-06 15:37 25.24883 55.37884 56 ft 15 kts 303°
2026-05-06 15:37 25.24971 55.37729 55 ft 43 kts 301°
2026-05-06 15:38 25.25280 55.37178 52 ft 124 kts 302°
2026-05-06 15:38 25.25851 55.36150 118 ft 181 kts 304°
2026-05-06 15:38 25.26531 55.35020 899 ft 182 kts 305°
2026-05-06 15:38 25.27211 55.33802 1441 ft 192 kts 303°
2026-05-06 15:39 25.27912 55.32511 1882 ft 200 kts 302°
2026-05-06 15:39 25.28624 55.31197 2444 ft 201 kts 301°
2026-05-06 15:39 25.29112 55.29748 2992 ft 205 kts 277°
2026-05-06 15:39 25.28959 55.28195 3530 ft 209 kts 251°
2026-05-06 15:40 25.28393 55.26730 4110 ft 210 kts 245°
2026-05-06 15:40 25.27774 55.25267 4648 ft 213 kts 244°
2026-05-06 15:40 25.27147 55.23793 5232 ft 214 kts 244°
2026-05-06 15:40 25.26514 55.22304 5753 ft 218 kts 243°
2026-05-06 15:41 25.25868 55.20785 6259 ft 223 kts 243°
2026-05-06 15:41 25.25182 55.19173 6542 ft 240 kts 242°
2026-05-06 15:41 25.24167 55.17659 6840 ft 250 kts 217°
2026-05-06 15:41 25.22609 55.16833 6928 ft 252 kts 187°
2026-05-06 15:42 25.20829 55.16782 6988 ft 256 kts 174°
2026-05-06 15:42 25.19140 55.17284 6981 ft 253 kts 149°
2026-05-06 15:42 25.17822 55.18594 6989 ft 263 kts 124°
2026-05-06 15:42 25.16898 55.20360 6995 ft 269 kts 118°
2026-05-06 15:43 25.16038 55.22198 7014 ft 271 kts 117°
2026-05-06 15:43 25.15157 55.24061 7099 ft 282 kts 118°
2026-05-06 15:43 25.14263 55.25928 8023 ft 275 kts 118°
2026-05-06 15:43 25.13368 55.27791 8751 ft 277 kts 119°
2026-05-06 15:44 25.12458 55.29684 9417 ft 281 kts 119°
2026-05-06 15:44 25.11545 55.31578 10034 ft 287 kts 118°
2026-05-06 15:44 25.10605 55.33532 10693 ft 291 kts 117°
2026-05-06 15:44 25.09734 55.35584 11316 ft 296 kts 113°
2026-05-06 15:45 25.08907 55.37659 11957 ft 300 kts 112°
2026-05-06 15:45 25.08059 55.39752 12588 ft 304 kts 112°
2026-05-06 15:45 25.07182 55.41892 13235 ft 308 kts 112°
2026-05-06 15:45 25.06328 55.44079 13647 ft 320 kts 111°
2026-05-06 15:46 25.05444 55.46407 13962 ft 337 kts 111°
2026-05-06 15:46 25.04512 55.48846 14289 ft 352 kts 111°
2026-05-06 15:46 25.03533 55.51389 14617 ft 367 kts 111°
2026-05-06 15:46 25.02518 55.54024 14942 ft 381 kts 111°
2026-05-06 15:47 25.01308 55.56675 14990 ft 399 kts 118°
2026-05-06 15:47 24.99885 55.59326 14998 ft 403 kts 119°
2026-05-06 15:47 24.98443 55.61984 15044 ft 411 kts 119°
2026-05-06 15:47 24.96972 55.64700 15675 ft 413 kts 119°
2026-05-06 15:48 24.95507 55.67402 16580 ft 408 kts 120°
2026-05-06 15:48 24.94035 55.70049 17261 ft 410 kts 123°
2026-05-06 15:48 24.92368 55.72618 17763 ft 416 kts 125°
2026-05-06 15:48 24.90634 55.75228 18245 ft 423 kts 126°
2026-05-06 15:49 24.88898 55.77841 18781 ft 427 kts 126°
2026-05-06 15:49 24.87138 55.80489 19324 ft 432 kts 126°
2026-05-06 15:49 24.85363 55.83162 19835 ft 437 kts 126°
2026-05-06 15:49 24.83567 55.85861 20321 ft 442 kts 127°
2026-05-06 15:50 24.81731 55.88575 20843 ft 446 kts 127°
2026-05-06 15:50 24.79869 55.91319 21355 ft 450 kts 127°
2026-05-06 15:50 24.77881 55.94023 21841 ft 454 kts 134°
2026-05-06 15:50 24.75621 55.96449 22320 ft 458 kts 137°
2026-05-06 15:51 24.73287 55.98852 22819 ft 462 kts 138°
2026-05-06 15:51 24.70935 56.01266 23316 ft 466 kts 138°
2026-05-06 15:51 24.68561 56.03703 23780 ft 470 kts 138°
2026-05-06 15:51 24.66134 56.06199 24240 ft 474 kts 138°
2026-05-06 15:52 24.63739 56.08662 24683 ft 477 kts 138°
2026-05-06 15:52 24.61317 56.11153 25047 ft 482 kts 139°
2026-05-06 15:52 24.58836 56.13702 25110 ft 485 kts 139°
2026-05-06 15:52 24.56479 56.16301 25126 ft 484 kts 133°
2026-05-06 15:53 24.54246 56.19114 25142 ft 483 kts 132°
2026-05-06 15:53 24.52050 56.21916 25159 ft 484 kts 132°
2026-05-06 15:53 24.49851 56.24722 25224 ft 490 kts 132°
2026-05-06 15:53 24.47638 56.27542 25656 ft 492 kts 132°
2026-05-06 15:54 24.45390 56.30405 26243 ft 492 kts 132°
2026-05-06 15:54 24.43183 56.33214 26679 ft 494 kts 132°
2026-05-06 15:54 24.40916 56.36094 26999 ft 499 kts 132°
2026-05-06 15:54 24.38634 56.38994 27322 ft 504 kts 132°
2026-05-06 15:55 24.36350 56.41892 27667 ft 508 kts 132°
2026-05-06 15:55 24.34016 56.44854 28031 ft 511 kts 132°
2026-05-06 15:55 24.31681 56.47813 28402 ft 514 kts 132°
2026-05-06 15:55 24.29345 56.50776 28764 ft 517 kts 131°
2026-05-06 15:56 24.27308 56.53676 29080 ft 521 kts 127°
2026-05-06 15:56 24.25175 56.56951 29427 ft 524 kts 127°
2026-05-06 15:56 24.23071 56.60183 29763 ft 527 kts 127°
2026-05-06 15:56 24.20912 56.63480 30085 ft 530 kts 127°
2026-05-06 15:57 24.18764 56.66748 30464 ft 531 kts 128°
2026-05-06 15:57 24.16612 56.70011 30945 ft 529 kts 128°
2026-05-06 15:57 24.14459 56.73266 31434 ft 528 kts 128°
2026-05-06 15:57 24.12318 56.76495 31902 ft 526 kts 128°
2026-05-06 15:58 24.10178 56.79718 32356 ft 525 kts 128°
2026-05-06 15:58 24.07886 56.82876 32802 ft 522 kts 135°
2026-05-06 15:58 24.05234 56.85610 33314 ft 517 kts 144°
2026-05-06 15:58 24.02298 56.87848 33866 ft 511 kts 153°
2026-05-06 15:59 23.99157 56.89550 34461 ft 503 kts 161°
2026-05-06 15:59 23.95850 56.90755 35037 ft 497 kts 167°
2026-05-06 15:59 23.92529 56.91750 35560 ft 494 kts 168°
2026-05-06 15:59 23.89208 56.92708 35997 ft 493 kts 168°
2026-05-06 16:00 23.85881 56.93651 36375 ft 492 kts 169°
2026-05-06 16:00 23.82543 56.94583 36317 ft 498 kts 169°
2026-05-06 16:00 23.75861 56.96421 36317 ft 491 kts 169°
2026-05-06 16:01 23.69211 56.98227 36343 ft 493 kts 169°
2026-05-06 16:01 23.62558 57.00022 36370 ft 492 kts 169°
2026-05-06 16:02 23.55911 57.01807 36412 ft 493 kts 169°
2026-05-06 16:02 23.49237 57.03594 36446 ft 492 kts 169°
2026-05-06 16:03 23.42562 57.05375 36481 ft 491 kts 170°
2026-05-06 16:03 23.35850 57.05967 36541 ft 483 kts 187°
2026-05-06 16:04 23.29234 57.04700 36573 ft 480 kts 195°
2026-05-06 16:04 23.22742 57.03176 36582 ft 480 kts 195°
2026-05-06 16:05 23.16182 57.01633 36558 ft 483 kts 195°
2026-05-06 16:05 23.12883 57.00857 36759 ft 485 kts 194°
2026-05-06 16:05 23.09580 57.00081 37178 ft 482 kts 194°
2026-05-06 16:06 23.03020 56.98541 37192 ft 479 kts 195°
2026-05-06 16:06 22.96534 56.97020 37173 ft 478 kts 195°
2026-05-06 16:07 22.90046 56.95304 37176 ft 476 kts 202°
2026-05-06 16:07 22.84357 56.92077 37171 ft 471 kts 218°
2026-05-06 16:08 22.80758 56.88546 37167 ft 468 kts 230°
2026-05-06 16:08 22.77164 56.82656 37568 ft 466 kts 243°
2026-05-06 16:09 22.75676 56.79585 37878 ft 464 kts 243°
2026-05-06 16:09 22.74176 56.76477 38038 ft 464 kts 243°
2026-05-06 16:09 22.71186 56.70275 38074 ft 466 kts 243°
2026-05-06 16:10 22.68205 56.64094 38058 ft 465 kts 243°
2026-05-06 16:10 22.65207 56.57883 38045 ft 465 kts 243°
2026-05-06 16:11 22.62230 56.51722 38037 ft 465 kts 243°
2026-05-06 16:11 22.59211 56.45479 38028 ft 466 kts 243°
2026-05-06 16:12 22.56210 56.39282 38006 ft 466 kts 243°
2026-05-06 16:12 22.53220 56.33110 37999 ft 465 kts 243°
2026-05-06 16:13 22.50205 56.26889 37992 ft 467 kts 242°
2026-05-06 16:13 22.47211 56.20719 37989 ft 466 kts 243°
2026-05-06 16:14 22.44205 56.14531 37978 ft 466 kts 243°
2026-05-06 16:14 22.41190 56.08332 37958 ft 466 kts 243°
2026-05-06 16:15 22.38179 56.02149 37955 ft 466 kts 243°
2026-05-06 16:15 22.35164 55.95993 37951 ft 466 kts 242°
2026-05-06 16:16 22.32118 55.89794 37949 ft 465 kts 242°
2026-05-06 16:16 22.29093 55.83642 37950 ft 466 kts 242°
2026-05-06 16:17 22.26057 55.77477 37948 ft 466 kts 242°
2026-05-06 16:17 22.23027 55.71307 37946 ft 467 kts 242°
2026-05-06 16:18 22.19992 55.65126 37948 ft 467 kts 243°
2026-05-06 16:18 22.17022 55.58902 37939 ft 467 kts 248°
2026-05-06 16:19 22.15383 55.52193 37936 ft 467 kts 263°
2026-05-06 16:19 22.14784 55.45232 37944 ft 466 kts 264°
2026-05-06 16:20 22.14217 55.38288 37940 ft 467 kts 264°
2026-05-06 16:20 22.13647 55.31354 37946 ft 467 kts 264°
2026-05-06 16:21 22.13072 55.24400 37943 ft 466 kts 264°
2026-05-06 16:21 22.12493 55.17443 37949 ft 465 kts 264°
2026-05-06 16:22 22.11913 55.10508 37964 ft 464 kts 264°
2026-05-06 16:22 22.11336 55.03642 37978 ft 464 kts 264°
2026-05-06 16:23 22.10750 54.96707 37976 ft 464 kts 264°
2026-05-06 16:23 22.10165 54.89819 37975 ft 465 kts 264°
2026-05-06 16:24 22.09570 54.82856 37965 ft 465 kts 264°
2026-05-06 16:24 22.08979 54.75959 37951 ft 465 kts 264°
2026-05-06 16:25 22.08382 54.69041 37946 ft 466 kts 264°
2026-05-06 16:25 22.07779 54.62080 37939 ft 465 kts 264°
2026-05-06 16:26 22.07180 54.55192 37944 ft 464 kts 264°
2026-05-06 16:26 22.06574 54.48267 37944 ft 463 kts 264°
2026-05-06 16:27 22.05971 54.41415 37946 ft 464 kts 264°
2026-05-06 16:27 22.05360 54.34497 37946 ft 464 kts 264°
2026-05-06 16:28 22.04747 54.27597 37953 ft 465 kts 264°
2026-05-06 16:28 22.04132 54.20705 37956 ft 464 kts 264°
2026-05-06 16:29 22.03510 54.13759 37950 ft 466 kts 264°
2026-05-06 16:29 22.02884 54.06811 37947 ft 465 kts 264°
2026-05-06 16:30 22.02363 54.01055 37949 ft 464 kts 264°
2026-05-06 16:30 22.01632 53.93005 37945 ft 464 kts 264°
2026-05-06 16:31 22.01004 53.86136 37943 ft 464 kts 264°
2026-05-06 16:31 22.00372 53.79251 37940 ft 463 kts 264°
2026-05-06 16:32 21.99736 53.72351 37938 ft 463 kts 264°
2026-05-06 16:32 21.99097 53.65453 37943 ft 464 kts 264°
2026-05-06 16:33 21.98456 53.58564 37940 ft 464 kts 264°
2026-05-06 16:34 21.97486 53.48188 37947 ft 463 kts 264°
2026-05-06 16:34 21.96838 53.41309 37936 ft 465 kts 264°
2026-05-06 16:35 21.96185 53.34399 37937 ft 462 kts 263°
2026-05-06 16:35 21.95534 53.27550 37943 ft 462 kts 263°
2026-05-06 16:36 21.94878 53.20666 37934 ft 463 kts 263°
2026-05-06 16:36 21.94216 53.13762 37936 ft 463 kts 263°
2026-05-06 16:37 21.93552 53.06862 37933 ft 463 kts 263°
2026-05-06 16:37 21.92886 52.99978 37932 ft 463 kts 263°
2026-05-06 16:38 21.92219 52.93107 37938 ft 462 kts 263°
2026-05-06 16:38 21.91549 52.86232 37948 ft 462 kts 263°
2026-05-06 16:39 21.90876 52.79363 37938 ft 462 kts 263°
2026-05-06 16:39 21.90242 52.72511 37924 ft 463 kts 267°
2026-05-06 16:40 21.90838 52.65627 37936 ft 465 kts 279°
2026-05-06 16:40 21.92112 52.58836 37932 ft 465 kts 279°
2026-05-06 16:41 21.93389 52.51985 37933 ft 466 kts 279°
2026-05-06 16:41 21.94657 52.45124 37934 ft 468 kts 279°
2026-05-06 16:42 21.95915 52.38277 37934 ft 467 kts 279°
2026-05-06 16:42 21.97163 52.31456 37941 ft 466 kts 279°
2026-05-06 16:43 21.98409 52.24623 37939 ft 466 kts 279°
2026-05-06 16:43 21.99643 52.17833 37939 ft 464 kts 279°
2026-05-06 16:44 22.00883 52.10997 37937 ft 464 kts 279°
2026-05-06 16:44 22.02115 52.04184 37936 ft 465 kts 279°
2026-05-06 16:45 22.03347 51.97348 37934 ft 465 kts 279°
2026-05-06 16:45 22.04570 51.90552 37933 ft 465 kts 279°
2026-05-06 16:46 22.05798 51.83711 37932 ft 466 kts 279°
2026-05-06 16:46 22.07021 51.76878 37930 ft 467 kts 279°
2026-05-06 16:47 22.08246 51.70019 37933 ft 466 kts 279°
2026-05-06 16:47 22.09463 51.63185 37935 ft 467 kts 279°
2026-05-06 16:48 22.10688 51.56293 37936 ft 466 kts 278°
2026-05-06 16:48 22.11899 51.49461 37939 ft 466 kts 278°
2026-05-06 16:49 22.13104 51.42641 37939 ft 466 kts 278°
2026-05-06 16:49 22.14319 51.35753 37941 ft 467 kts 278°
2026-05-06 16:50 22.15525 51.28896 37951 ft 467 kts 278°
2026-05-06 16:50 22.16727 51.22046 37950 ft 467 kts 278°
2026-05-06 16:51 22.17933 51.15149 37951 ft 468 kts 278°
2026-05-06 16:51 22.19128 51.08308 37952 ft 467 kts 278°
2026-05-06 16:52 22.20328 51.01409 37951 ft 468 kts 278°
2026-05-06 16:52 22.21519 50.94550 37952 ft 469 kts 278°
2026-05-06 16:53 22.22716 50.87640 37948 ft 467 kts 278°
2026-05-06 16:53 22.23895 50.80817 37947 ft 466 kts 278°
2026-05-06 16:54 22.25083 50.73922 37948 ft 467 kts 278°
2026-05-06 16:54 22.26262 50.67058 37952 ft 465 kts 278°
2026-05-06 16:55 22.27432 50.60233 37954 ft 466 kts 278°
2026-05-06 16:55 22.28603 50.53384 37964 ft 466 kts 278°
2026-05-06 16:56 22.29773 50.46519 37967 ft 466 kts 278°
2026-05-06 16:56 22.30939 50.39661 37968 ft 466 kts 278°
2026-05-06 16:57 22.32106 50.32782 37982 ft 464 kts 277°
2026-05-06 16:57 22.33257 50.25978 37983 ft 465 kts 277°
2026-05-06 16:58 22.34418 50.19098 37986 ft 464 kts 278°
2026-05-06 16:58 22.35567 50.12267 37988 ft 464 kts 278°
2026-05-06 16:59 22.36717 50.05416 37986 ft 464 kts 277°
2026-05-06 16:59 22.37860 49.98584 37982 ft 463 kts 277°
2026-05-06 17:00 22.38998 49.91771 37979 ft 463 kts 277°
2026-05-06 17:00 22.40135 49.84938 37976 ft 463 kts 277°
2026-05-06 17:01 22.41271 49.78095 37974 ft 463 kts 277°
2026-05-06 17:01 22.42399 49.71280 37972 ft 463 kts 277°
2026-05-06 17:02 22.43532 49.64419 37972 ft 463 kts 277°
2026-05-06 17:02 22.44650 49.57634 37972 ft 462 kts 277°
2026-05-06 17:03 22.45769 49.50816 37971 ft 462 kts 277°
2026-05-06 17:03 22.46890 49.43973 37972 ft 462 kts 277°
2026-05-06 17:04 22.48007 49.37133 37975 ft 463 kts 278°
2026-05-06 17:04 22.49119 49.30310 37978 ft 461 kts 277°
2026-05-06 17:05 22.50222 49.23519 37986 ft 461 kts 277°
2026-05-06 17:05 22.51331 49.16671 37991 ft 464 kts 277°
2026-05-06 17:06 22.52445 49.09773 37996 ft 471 kts 277°
2026-05-06 17:06 22.53574 49.02763 37998 ft 478 kts 277°
2026-05-06 17:07 22.54705 48.95722 37997 ft 476 kts 277°
2026-05-06 17:07 22.55832 48.88694 38000 ft 475 kts 277°
2026-05-06 17:08 22.56953 48.81671 38003 ft 476 kts 277°
2026-05-06 17:08 22.58071 48.74649 38004 ft 476 kts 277°
2026-05-06 17:09 22.59191 48.67598 38005 ft 476 kts 277°
2026-05-06 17:09 22.60306 48.60556 38010 ft 476 kts 277°
2026-05-06 17:10 22.61417 48.53517 38013 ft 476 kts 277°
2026-05-06 17:10 22.62525 48.46480 38012 ft 476 kts 277°
2026-05-06 17:11 22.63633 48.39420 38012 ft 475 kts 277°
2026-05-06 17:11 22.64735 48.32380 38028 ft 475 kts 277°
2026-05-06 17:12 22.65829 48.25367 38025 ft 474 kts 277°
2026-05-06 17:12 22.66921 48.18346 38030 ft 473 kts 277°
2026-05-06 17:13 22.68001 48.11383 38030 ft 474 kts 277°
2026-05-06 17:13 22.69074 48.04351 38029 ft 473 kts 275°
2026-05-06 17:14 22.69722 47.97260 38039 ft 472 kts 272°
2026-05-06 17:14 22.70314 47.90218 38048 ft 474 kts 273°
2026-05-06 17:15 22.70906 47.83128 38051 ft 473 kts 273°
2026-05-06 17:15 22.71493 47.76060 38057 ft 473 kts 272°
2026-05-06 17:16 22.72079 47.68968 38062 ft 473 kts 272°
2026-05-06 17:16 22.72661 47.61890 38070 ft 473 kts 272°
2026-05-06 17:17 22.73239 47.54815 38077 ft 473 kts 272°
2026-05-06 17:17 22.73813 47.47754 38079 ft 473 kts 272°
2026-05-06 17:18 22.74383 47.40702 38089 ft 473 kts 272°
2026-05-06 17:18 22.74954 47.33612 38101 ft 471 kts 272°
2026-05-06 17:19 22.75516 47.26571 38110 ft 472 kts 272°
2026-05-06 17:19 22.76080 47.19474 38119 ft 473 kts 272°
2026-05-06 17:20 22.76641 47.12430 38122 ft 471 kts 272°
2026-05-06 17:20 22.77204 47.05334 38129 ft 472 kts 272°
2026-05-06 17:21 22.77761 46.98283 38136 ft 473 kts 271°
2026-05-06 17:21 22.78318 46.91185 38137 ft 474 kts 272°
2026-05-06 17:22 22.78872 46.84091 38128 ft 473 kts 272°
2026-05-06 17:22 22.79422 46.77002 38129 ft 472 kts 271°
2026-05-06 17:23 22.79963 46.69990 38144 ft 469 kts 272°
2026-05-06 17:23 22.80502 46.62965 38166 ft 469 kts 272°
2026-05-06 17:24 22.81040 46.55918 38174 ft 468 kts 271°
2026-05-06 17:24 22.81569 46.48935 38186 ft 468 kts 271°
2026-05-06 17:25 22.82097 46.41923 38196 ft 467 kts 271°
2026-05-06 17:25 22.82623 46.34888 38210 ft 467 kts 271°
2026-05-06 17:26 22.83137 46.27948 38229 ft 465 kts 271°
2026-05-06 17:26 22.83651 46.20969 38224 ft 463 kts 271°
2026-05-06 17:27 22.84158 46.14043 38199 ft 462 kts 271°
2026-05-06 17:27 22.84662 46.07115 38175 ft 462 kts 271°
2026-05-06 17:28 22.85162 46.00183 38159 ft 464 kts 271°
2026-05-06 17:28 22.85657 45.93301 38153 ft 461 kts 271°
2026-05-06 17:29 22.86153 45.86365 38150 ft 462 kts 271°
2026-05-06 17:29 22.86643 45.79465 38145 ft 461 kts 271°
2026-05-06 17:30 22.87132 45.72540 38154 ft 460 kts 271°
2026-05-06 17:30 22.87617 45.65626 38155 ft 459 kts 271°
2026-05-06 17:31 22.88095 45.58757 38166 ft 460 kts 271°
2026-05-06 17:31 22.88574 45.51852 38173 ft 457 kts 271°
2026-05-06 17:32 22.89042 45.45049 38174 ft 456 kts 271°
2026-05-06 17:32 22.89512 45.38178 38173 ft 456 kts 271°
2026-05-06 17:33 22.89976 45.31348 38191 ft 456 kts 271°
2026-05-06 17:33 22.90435 45.24540 38186 ft 455 kts 271°
2026-05-06 17:34 22.90894 45.17703 38184 ft 454 kts 270°
2026-05-06 17:34 22.91349 45.10885 38190 ft 454 kts 271°
2026-05-06 17:35 22.91800 45.04065 38191 ft 453 kts 271°
2026-05-06 17:35 22.92246 44.97280 38194 ft 453 kts 271°
2026-05-06 17:36 22.92911 44.87065 38193 ft 455 kts 271°
2026-05-06 17:36 22.93354 44.80206 38195 ft 455 kts 270°
2026-05-06 17:37 22.93790 44.73428 38193 ft 448 kts 270°
2026-05-06 17:37 22.94005 44.70113 38085 ft 435 kts 271°
2026-05-06 17:37 22.94426 44.66854 38101 ft 442 kts 278°
2026-05-06 17:38 22.96244 44.60389 38093 ft 453 kts 284°
2026-05-06 17:38 22.98262 44.53874 38090 ft 461 kts 284°
2026-05-06 17:39 23.00308 44.47252 38088 ft 464 kts 284°
2026-05-06 17:39 23.02342 44.40654 38097 ft 462 kts 284°
2026-05-06 17:40 23.04366 44.34074 38113 ft 461 kts 283°
2026-05-06 17:40 23.06383 44.27503 38124 ft 460 kts 283°
2026-05-06 17:41 23.08405 44.20904 38129 ft 462 kts 283°
2026-05-06 17:41 23.10418 44.14323 38124 ft 461 kts 283°
2026-05-06 17:42 23.12433 44.07725 38128 ft 461 kts 283°
2026-05-06 17:42 23.14451 44.01104 38129 ft 462 kts 283°
2026-05-06 17:43 23.16466 43.94481 38128 ft 463 kts 283°
2026-05-06 17:43 23.18470 43.87886 38135 ft 462 kts 283°
2026-05-06 17:44 23.20480 43.81263 38142 ft 460 kts 283°
2026-05-06 17:44 23.22473 43.74682 38143 ft 460 kts 283°
2026-05-06 17:45 23.24468 43.68081 38142 ft 459 kts 283°
2026-05-06 17:45 23.26450 43.61514 38142 ft 458 kts 283°
2026-05-06 17:46 23.28424 43.54962 38142 ft 458 kts 283°
2026-05-06 17:46 23.30397 43.48407 38139 ft 456 kts 282°
2026-05-06 17:47 23.32363 43.41858 38143 ft 456 kts 282°
2026-05-06 17:47 23.34319 43.35335 38146 ft 455 kts 282°
2026-05-06 17:48 23.36276 43.28798 38166 ft 453 kts 282°
2026-05-06 17:48 23.38221 43.22288 38171 ft 455 kts 282°
2026-05-06 17:49 23.40177 43.15730 38169 ft 455 kts 282°
2026-05-06 17:49 23.42116 43.09210 38164 ft 454 kts 282°
2026-05-06 17:50 23.44047 43.02701 38161 ft 453 kts 282°
2026-05-06 17:50 23.45981 42.96171 38160 ft 453 kts 282°
2026-05-06 17:51 23.47904 42.89666 38159 ft 452 kts 282°
2026-05-06 17:51 23.49816 42.83187 38157 ft 453 kts 282°
2026-05-06 17:52 23.51743 42.76645 38154 ft 451 kts 282°
2026-05-06 17:52 23.53649 42.70176 38151 ft 450 kts 282°
2026-05-06 17:53 23.55565 42.63666 38151 ft 453 kts 282°
2026-05-06 17:53 23.57468 42.57191 38147 ft 451 kts 282°
2026-05-06 17:54 23.59371 42.50705 38141 ft 450 kts 282°
2026-05-06 17:54 23.61277 42.44196 38143 ft 451 kts 281°
2026-05-06 17:55 23.63173 42.37709 38148 ft 450 kts 281°
2026-05-06 17:55 23.65071 42.31208 38169 ft 450 kts 281°
2026-05-06 17:56 23.66953 42.24739 38170 ft 450 kts 281°
2026-05-06 17:56 23.68832 42.18256 38169 ft 451 kts 281°
2026-05-06 17:57 23.70721 42.11727 38166 ft 450 kts 281°
2026-05-06 17:57 23.72604 42.05208 38163 ft 449 kts 281°
2026-05-06 17:58 23.74462 41.98768 38163 ft 449 kts 280°
2026-05-06 17:58 23.76346 41.92245 38162 ft 451 kts 281°
2026-05-06 17:59 23.78218 41.85764 38158 ft 449 kts 281°
2026-05-06 17:59 23.80080 41.79306 38158 ft 447 kts 280°
2026-05-06 18:00 23.81936 41.72852 38152 ft 449 kts 280°
2026-05-06 18:00 23.83800 41.66351 38152 ft 449 kts 280°
2026-05-06 18:01 23.85655 41.59877 38148 ft 447 kts 280°
2026-05-06 18:01 23.87510 41.53380 38148 ft 448 kts 280°
2026-05-06 18:02 23.89354 41.46888 38143 ft 448 kts 280°
2026-05-06 18:02 23.91189 41.40418 38143 ft 446 kts 280°
2026-05-06 18:03 23.93015 41.33970 38147 ft 445 kts 279°
2026-05-06 18:03 23.94832 41.27566 38151 ft 443 kts 279°
2026-05-06 18:04 23.96647 41.21155 38147 ft 442 kts 279°
2026-05-06 18:04 23.98455 41.14756 38146 ft 443 kts 279°
2026-05-06 18:05 24.00279 41.08291 38143 ft 443 kts 279°
2026-05-06 18:05 24.02074 41.01919 38144 ft 442 kts 279°
2026-05-06 18:06 24.03875 40.95511 38140 ft 440 kts 279°
2026-05-06 18:06 24.05671 40.89113 38132 ft 442 kts 279°
2026-05-06 18:07 24.07467 40.82703 38134 ft 440 kts 279°
2026-05-06 18:07 24.09253 40.76319 38131 ft 442 kts 279°
2026-05-06 18:08 24.11041 40.69915 38114 ft 441 kts 279°
2026-05-06 18:08 24.12819 40.63539 38114 ft 440 kts 279°
2026-05-06 18:09 24.14609 40.57097 38111 ft 444 kts 279°
2026-05-06 18:09 24.16583 40.50714 38103 ft 449 kts 286°
2026-05-06 18:10 24.19464 40.44589 38091 ft 453 kts 289°
2026-05-06 18:10 24.22391 40.38506 38094 ft 451 kts 289°
2026-05-06 18:11 24.25313 40.32411 38109 ft 454 kts 289°
2026-05-06 18:11 24.28234 40.26313 38103 ft 450 kts 289°
2026-05-06 18:12 24.31125 40.20265 38102 ft 449 kts 289°
2026-05-06 18:12 24.34007 40.14224 38105 ft 450 kts 289°
2026-05-06 18:13 24.36902 40.08149 38108 ft 451 kts 289°
2026-05-06 18:13 24.39789 40.02085 38101 ft 449 kts 289°
2026-05-06 18:14 24.42678 39.96006 38096 ft 451 kts 289°
2026-05-06 18:14 24.45571 39.89914 38088 ft 450 kts 289°
2026-05-06 18:15 24.48461 39.83818 38085 ft 451 kts 289°
2026-05-06 18:15 24.51332 39.77757 38075 ft 447 kts 289°
2026-05-06 18:16 24.54524 39.71859 38083 ft 461 kts 298°
2026-05-06 18:16 24.56684 39.69202 38083 ft 473 kts 306°
2026-05-06 18:16 24.59227 39.66859 38090 ft 480 kts 313°
2026-05-06 18:17 24.64646 39.62562 38112 ft 482 kts 314°
2026-05-06 18:17 24.70138 39.58207 38123 ft 486 kts 314°
2026-05-06 18:18 24.75585 39.53873 38155 ft 482 kts 314°
2026-05-06 18:18 24.80983 39.49562 38154 ft 482 kts 314°
2026-05-06 18:19 24.86441 39.45191 38135 ft 484 kts 314°
2026-05-06 18:19 24.91871 39.40840 38111 ft 483 kts 314°
2026-05-06 18:20 24.97266 39.36509 38090 ft 480 kts 314°
2026-05-06 18:20 25.02693 39.32143 38109 ft 485 kts 314°
2026-05-06 18:21 25.08133 39.27765 38104 ft 483 kts 314°
2026-05-06 18:21 25.13543 39.23408 38100 ft 480 kts 314°
2026-05-06 18:22 25.18935 39.19054 38102 ft 481 kts 313°
2026-05-06 18:22 25.21433 39.16675 38123 ft 470 kts 305°
2026-05-06 18:22 25.23541 39.13982 38114 ft 461 kts 297°
2026-05-06 18:23 25.27060 39.08139 38106 ft 452 kts 294°
2026-05-06 18:23 25.30477 39.02306 38109 ft 455 kts 294°
2026-05-06 18:24 25.33903 38.96449 38096 ft 454 kts 294°
2026-05-06 18:24 25.37298 38.90638 38080 ft 452 kts 294°
2026-05-06 18:25 25.40704 38.84796 38061 ft 454 kts 294°
2026-05-06 18:25 25.44115 38.78941 38045 ft 453 kts 294°
2026-05-06 18:26 25.47542 38.73048 38043 ft 457 kts 294°
2026-05-06 18:26 25.50956 38.67176 38032 ft 453 kts 294°
2026-05-06 18:27 25.54354 38.61319 38031 ft 456 kts 294°
2026-05-06 18:27 25.57788 38.55393 38035 ft 455 kts 294°
2026-05-06 18:28 25.61196 38.49505 38040 ft 457 kts 294°
2026-05-06 18:28 25.64606 38.43607 38041 ft 455 kts 294°
2026-05-06 18:29 25.68035 38.37666 38034 ft 458 kts 295°
2026-05-06 18:29 25.71462 38.31725 38038 ft 456 kts 294°
2026-05-06 18:30 25.74855 38.25835 38028 ft 456 kts 294°
2026-05-06 18:30 25.78250 38.19932 38022 ft 456 kts 294°
2026-05-06 18:31 25.81666 38.13985 38020 ft 455 kts 294°
2026-05-06 18:31 25.85044 38.08098 38027 ft 455 kts 294°
2026-05-06 18:32 25.88438 38.02172 38029 ft 456 kts 294°
2026-05-06 18:32 25.91831 37.96244 38032 ft 454 kts 294°
2026-05-06 18:33 25.95207 37.90336 38047 ft 455 kts 294°
2026-05-06 18:33 25.98568 37.84370 38063 ft 450 kts 291°
2026-05-06 18:34 26.00778 37.78021 38086 ft 439 kts 276°
2026-05-06 18:34 26.01781 37.71412 38103 ft 434 kts 273°
2026-05-06 18:35 26.02691 37.64805 38075 ft 434 kts 273°
2026-05-06 18:35 26.03592 37.58192 38061 ft 433 kts 273°
2026-05-06 18:36 26.04484 37.51598 38052 ft 435 kts 273°
2026-05-06 18:36 26.05380 37.44934 38046 ft 435 kts 273°
2026-05-06 18:37 26.06263 37.38347 38024 ft 432 kts 273°
2026-05-06 18:37 26.07145 37.31734 38029 ft 433 kts 273°
2026-05-06 18:38 26.08020 37.25143 38013 ft 433 kts 273°
2026-05-06 18:38 26.08898 37.18514 38001 ft 433 kts 273°
2026-05-06 18:39 26.09770 37.11904 37998 ft 434 kts 273°
2026-05-06 18:40 26.11076 37.01956 37977 ft 434 kts 272°
2026-05-06 18:40 26.11938 36.95357 37968 ft 436 kts 273°
2026-05-06 18:41 26.12805 36.88707 37964 ft 434 kts 273°
2026-05-06 18:41 26.13667 36.82063 37967 ft 436 kts 273°
2026-05-06 18:42 26.14531 36.75387 37962 ft 434 kts 273°
2026-05-06 18:42 26.15383 36.68763 37964 ft 437 kts 273°
2026-05-06 18:43 26.16241 36.62081 37964 ft 435 kts 273°
2026-05-06 18:43 26.17121 36.55427 37958 ft 438 kts 276°
2026-05-06 18:44 26.19102 36.48962 37954 ft 451 kts 290°
2026-05-06 18:44 26.22736 36.43156 37950 ft 468 kts 305°
2026-05-06 18:45 26.27294 36.37936 37958 ft 471 kts 307°
2026-05-06 18:45 26.31832 36.32756 37976 ft 470 kts 306°
2026-05-06 18:46 26.36407 36.27502 37975 ft 471 kts 306°
2026-05-06 18:46 26.40944 36.22273 37977 ft 470 kts 306°
2026-05-06 18:47 26.45495 36.17015 37976 ft 471 kts 306°
2026-05-06 18:47 26.50014 36.11785 37976 ft 470 kts 306°
2026-05-06 18:48 26.54554 36.06521 37981 ft 471 kts 307°
2026-05-06 18:48 26.59115 36.01226 37980 ft 471 kts 307°
2026-05-06 18:49 26.63653 35.95951 37981 ft 472 kts 307°
2026-05-06 18:49 26.68186 35.90675 37982 ft 472 kts 307°
2026-05-06 18:50 26.72729 35.85381 37982 ft 470 kts 307°
2026-05-06 18:50 26.77220 35.80142 37980 ft 469 kts 307°
2026-05-06 18:51 26.81750 35.74849 37979 ft 469 kts 307°
2026-05-06 18:51 26.86266 35.69568 37979 ft 470 kts 307°
2026-05-06 18:52 26.90759 35.64307 37976 ft 470 kts 307°
2026-05-06 18:52 26.95278 35.59008 37972 ft 471 kts 307°
2026-05-06 18:53 26.99796 35.53705 37972 ft 471 kts 307°
2026-05-06 18:53 27.04307 35.48403 37972 ft 471 kts 307°
2026-05-06 18:54 27.08826 35.43087 37972 ft 470 kts 307°
2026-05-06 18:54 27.13338 35.37770 37966 ft 471 kts 308°
2026-05-06 18:55 27.17845 35.32454 37974 ft 470 kts 307°
2026-05-06 18:55 27.22339 35.27145 37975 ft 470 kts 307°
2026-05-06 18:56 27.26840 35.21822 37974 ft 470 kts 307°
2026-05-06 18:56 27.31340 35.16493 37972 ft 469 kts 307°
2026-05-06 18:57 27.35806 35.11198 37969 ft 469 kts 307°
2026-05-06 18:57 27.40280 35.05886 37970 ft 469 kts 307°
2026-05-06 18:58 27.44762 35.00559 37966 ft 469 kts 307°
2026-05-06 18:58 27.49251 34.95217 37964 ft 469 kts 308°
2026-05-06 18:59 27.53821 34.89980 37975 ft 473 kts 311°
2026-05-06 18:59 27.58631 34.84962 37965 ft 473 kts 311°
2026-05-06 19:00 27.63448 34.79910 37963 ft 472 kts 311°
2026-05-06 19:00 27.68232 34.74866 37970 ft 473 kts 311°
2026-05-06 19:01 27.73049 34.69772 37967 ft 473 kts 311°
2026-05-06 19:01 27.77844 34.64690 37967 ft 473 kts 311°
2026-05-06 19:02 27.82640 34.59597 37970 ft 473 kts 311°
2026-05-06 19:02 27.87415 34.54518 37972 ft 473 kts 311°
2026-05-06 19:03 27.92185 34.49438 37974 ft 474 kts 311°
2026-05-06 19:03 27.97003 34.44305 37979 ft 473 kts 311°
2026-05-06 19:04 28.01521 34.38973 37992 ft 468 kts 304°
2026-05-06 19:04 28.05634 34.33290 38002 ft 469 kts 304°
2026-05-06 19:05 28.09752 34.27586 38025 ft 468 kts 304°
2026-05-06 19:05 28.13848 34.21906 38044 ft 466 kts 304°
2026-05-06 19:06 28.17955 34.16205 38066 ft 467 kts 304°
2026-05-06 19:06 28.22039 34.10531 38100 ft 467 kts 304°
2026-05-06 19:07 28.26137 34.04828 38152 ft 467 kts 304°
2026-05-06 19:07 28.30239 33.99113 38174 ft 467 kts 304°
2026-05-06 19:08 28.34333 33.93402 38153 ft 466 kts 304°
2026-05-06 19:08 28.38415 33.87699 38138 ft 466 kts 304°
2026-05-06 19:09 28.42489 33.82000 38120 ft 465 kts 304°
2026-05-06 19:09 28.46561 33.76297 38113 ft 465 kts 304°
2026-05-06 19:10 28.50642 33.70573 38100 ft 464 kts 304°
2026-05-06 19:10 28.54672 33.64914 38107 ft 464 kts 304°
2026-05-06 19:11 28.58759 33.59183 38100 ft 465 kts 304°
2026-05-06 19:11 28.62812 33.53493 38100 ft 465 kts 304°
2026-05-06 19:12 28.66859 33.47792 38097 ft 464 kts 304°
2026-05-06 19:12 28.70913 33.42070 38090 ft 464 kts 304°
2026-05-06 19:13 28.74944 33.36372 38095 ft 463 kts 304°
2026-05-06 19:13 28.78982 33.30658 38092 ft 464 kts 303°
2026-05-06 19:14 28.83020 33.24934 38087 ft 463 kts 303°
2026-05-06 19:14 28.87035 33.19236 38080 ft 463 kts 303°
2026-05-06 19:15 28.91071 33.13501 38072 ft 464 kts 303°
2026-05-06 19:15 28.95107 33.07757 38069 ft 464 kts 303°
2026-05-06 19:16 28.99140 33.02010 38060 ft 463 kts 303°
2026-05-06 19:16 29.03166 32.96265 38294 ft 465 kts 303°
2026-05-06 19:16 29.05178 32.93392 38610 ft 462 kts 303°
2026-05-06 19:17 29.07178 32.90533 38869 ft 460 kts 303°
2026-05-06 19:17 29.09162 32.87695 39058 ft 459 kts 303°
2026-05-06 19:17 29.11149 32.84851 39201 ft 460 kts 303°
2026-05-06 19:17 29.13163 32.81966 39309 ft 460 kts 303°
2026-05-06 19:18 29.15161 32.79101 39351 ft 462 kts 303°
2026-05-06 19:18 29.19156 32.73367 39394 ft 466 kts 303°
2026-05-06 19:19 29.23219 32.67529 39506 ft 467 kts 303°
2026-05-06 19:19 29.27258 32.61716 39584 ft 468 kts 303°
2026-05-06 19:20 29.31277 32.55897 39704 ft 467 kts 303°
2026-05-06 19:20 29.35306 32.50025 39783 ft 467 kts 303°
2026-05-06 19:21 29.39313 32.44179 39812 ft 469 kts 303°
2026-05-06 19:21 29.43326 32.38319 39922 ft 468 kts 303°
2026-05-06 19:22 29.47371 32.32402 39987 ft 469 kts 303°
2026-05-06 19:22 29.51371 32.26545 40135 ft 468 kts 303°
2026-05-06 19:23 29.55382 32.20662 40143 ft 467 kts 303°
2026-05-06 19:23 29.59361 32.14817 40137 ft 467 kts 303°
2026-05-06 19:24 29.63357 32.08940 40140 ft 467 kts 303°
2026-05-06 19:24 29.67344 32.03067 40135 ft 467 kts 303°
2026-05-06 19:25 29.71343 31.97168 40134 ft 467 kts 303°
2026-05-06 19:25 29.75324 31.91286 40135 ft 467 kts 303°
2026-05-06 19:26 29.79305 31.85377 40137 ft 467 kts 302°
2026-05-06 19:26 29.83157 31.79370 40141 ft 466 kts 302°
2026-05-06 19:27 29.86987 31.73378 40141 ft 466 kts 302°
2026-05-06 19:27 29.90838 31.67355 40144 ft 466 kts 302°
2026-05-06 19:28 29.94694 31.61369 40147 ft 466 kts 302°
2026-05-06 19:28 29.98540 31.55423 40155 ft 466 kts 302°
2026-05-06 19:29 30.02408 31.49432 40153 ft 466 kts 302°
2026-05-06 19:29 30.06287 31.43416 40152 ft 467 kts 302°
2026-05-06 19:30 30.10388 31.37618 40151 ft 472 kts 311°
2026-05-06 19:30 30.15218 31.32402 40154 ft 474 kts 312°
2026-05-06 19:31 30.20052 31.27220 40154 ft 474 kts 312°
2026-05-06 19:31 30.27286 31.19446 40148 ft 474 kts 312°
2026-05-06 19:32 30.32101 31.14260 40154 ft 474 kts 312°
2026-05-06 19:32 30.36932 31.09047 40154 ft 475 kts 312°
2026-05-06 19:33 30.41753 31.03838 40150 ft 475 kts 312°
2026-05-06 19:33 30.46566 30.98630 40159 ft 475 kts 313°
2026-05-06 19:34 30.51396 30.93396 40151 ft 475 kts 313°
2026-05-06 19:34 30.56218 30.88163 40162 ft 475 kts 313°
2026-05-06 19:35 30.61031 30.82932 40157 ft 475 kts 313°
2026-05-06 19:35 30.65841 30.77697 40152 ft 475 kts 313°
2026-05-06 19:36 30.70645 30.72461 40160 ft 475 kts 313°
2026-05-06 19:36 30.75467 30.67197 40155 ft 475 kts 313°
2026-05-06 19:37 30.80260 30.61957 40157 ft 475 kts 313°
2026-05-06 19:37 30.85076 30.56686 40154 ft 475 kts 313°
2026-05-06 19:38 30.89864 30.51438 40154 ft 474 kts 313°
2026-05-06 19:38 30.94638 30.46196 40155 ft 474 kts 313°
2026-05-06 19:39 30.99437 30.40920 40156 ft 474 kts 313°
2026-05-06 19:39 31.04232 30.35641 40156 ft 474 kts 314°
2026-05-06 19:40 31.08453 30.29855 40150 ft 466 kts 299°
2026-05-06 19:40 31.11075 30.23041 40163 ft 463 kts 287°
2026-05-06 19:41 31.13069 30.15888 40164 ft 464 kts 286°
2026-05-06 19:41 31.15025 30.08775 40160 ft 464 kts 286°
2026-05-06 19:42 31.16979 30.01620 40160 ft 465 kts 286°
2026-05-06 19:42 31.19311 29.94607 40161 ft 467 kts 297°
2026-05-06 19:43 31.22969 29.88324 40168 ft 469 kts 304°
2026-05-06 19:43 31.26818 29.82170 40153 ft 468 kts 304°
2026-05-06 19:44 31.30645 29.76037 40160 ft 467 kts 304°
2026-05-06 19:44 31.34460 29.69911 40156 ft 467 kts 304°
2026-05-06 19:45 31.38275 29.63774 40154 ft 467 kts 304°
2026-05-06 19:45 31.42091 29.57625 40156 ft 467 kts 304°
2026-05-06 19:46 31.45912 29.51456 40149 ft 467 kts 304°
2026-05-06 19:46 31.49713 29.45310 40152 ft 468 kts 304°
2026-05-06 19:47 31.53511 29.39160 40150 ft 467 kts 304°
2026-05-06 19:47 31.57325 29.32972 40156 ft 467 kts 304°
2026-05-06 19:48 31.61097 29.26836 40155 ft 466 kts 303°
2026-05-06 19:48 31.64881 29.20661 40159 ft 465 kts 303°
2026-05-06 19:49 31.68638 29.14521 40156 ft 465 kts 303°
2026-05-06 19:49 31.72470 29.08394 40155 ft 466 kts 309°
2026-05-06 19:50 31.77230 29.03219 40159 ft 470 kts 318°
2026-05-06 19:50 31.82301 28.98344 40158 ft 470 kts 318°
2026-05-06 19:51 31.87352 28.93481 40158 ft 470 kts 318°
2026-05-06 19:51 31.92384 28.88627 40158 ft 470 kts 318°
2026-05-06 19:52 31.97441 28.83739 40157 ft 469 kts 318°
2026-05-06 19:52 32.02459 28.78881 40163 ft 469 kts 318°
2026-05-06 19:53 32.07481 28.74012 40164 ft 469 kts 318°
2026-05-06 19:53 32.12508 28.69131 40153 ft 468 kts 318°
2026-05-06 19:54 32.17536 28.64241 40162 ft 468 kts 318°
2026-05-06 19:54 32.22557 28.59352 40155 ft 468 kts 318°
2026-05-06 19:55 32.27550 28.54481 40157 ft 468 kts 318°
2026-05-06 19:55 32.32556 28.49591 40158 ft 468 kts 318°
2026-05-06 19:56 32.37574 28.44683 40157 ft 467 kts 318°
2026-05-06 19:56 32.42554 28.39804 40151 ft 467 kts 319°
2026-05-06 19:57 32.47558 28.34894 40148 ft 467 kts 318°
2026-05-06 19:57 32.52542 28.29997 40160 ft 467 kts 318°
2026-05-06 19:58 32.57549 28.25070 40159 ft 467 kts 318°
2026-05-06 19:58 32.62532 28.20159 40160 ft 467 kts 318°
2026-05-06 19:59 32.67527 28.15228 40155 ft 466 kts 318°
2026-05-06 19:59 32.72502 28.10310 40162 ft 466 kts 318°
2026-05-06 20:00 32.77483 28.05379 40161 ft 467 kts 318°
2026-05-06 20:00 32.82475 28.00430 40161 ft 467 kts 318°
2026-05-06 20:01 32.87443 27.95496 40153 ft 466 kts 318°
2026-05-06 20:01 32.92403 27.90564 40159 ft 466 kts 318°
2026-05-06 20:02 32.97352 27.85634 40154 ft 466 kts 318°
2026-05-06 20:02 33.02315 27.80683 40153 ft 465 kts 318°
2026-05-06 20:03 33.07278 27.75726 40155 ft 466 kts 318°
2026-05-06 20:03 33.12244 27.70756 40156 ft 467 kts 318°
2026-05-06 20:04 33.17184 27.65806 40157 ft 467 kts 318°
2026-05-06 20:04 33.22182 27.60790 40152 ft 467 kts 318°
2026-05-06 20:05 33.27117 27.55829 40153 ft 467 kts 318°
2026-05-06 20:05 33.32103 27.50810 40153 ft 467 kts 318°
2026-05-06 20:06 33.37037 27.45835 40153 ft 467 kts 318°
2026-05-06 20:06 33.41997 27.40826 40155 ft 467 kts 318°
2026-05-06 20:07 33.46951 27.35816 40152 ft 467 kts 318°
2026-05-06 20:07 33.51914 27.30789 40162 ft 467 kts 318°
2026-05-06 20:08 33.56871 27.25760 40157 ft 466 kts 318°
2026-05-06 20:08 33.61826 27.20724 40162 ft 467 kts 318°
2026-05-06 20:09 33.66764 27.15699 40156 ft 468 kts 318°
2026-05-06 20:09 33.71706 27.10662 40157 ft 468 kts 318°
2026-05-06 20:10 33.76673 27.05590 40159 ft 469 kts 318°
2026-05-06 20:10 33.81645 27.00507 40158 ft 468 kts 318°
2026-05-06 20:11 33.86572 26.95461 40154 ft 467 kts 318°
2026-05-06 20:11 33.91499 26.90408 40153 ft 467 kts 318°
2026-05-06 20:12 33.96443 26.85328 40153 ft 468 kts 318°
2026-05-06 20:12 34.01268 26.80092 40156 ft 467 kts 314°
2026-05-06 20:13 34.05816 26.74499 40152 ft 468 kts 313°
2026-05-06 20:13 34.10360 26.68887 40151 ft 468 kts 313°
2026-05-06 20:14 34.14875 26.63301 40153 ft 468 kts 313°
2026-05-06 20:14 34.19417 26.57674 40153 ft 467 kts 313°
2026-05-06 20:15 34.23951 26.52046 40153 ft 467 kts 313°
2026-05-06 20:15 34.28458 26.46442 40153 ft 467 kts 313°
2026-05-06 20:16 34.32980 26.40812 40152 ft 467 kts 313°
2026-05-06 20:16 34.37484 26.35194 40151 ft 467 kts 313°
2026-05-06 20:17 34.42010 26.29540 40162 ft 467 kts 313°
2026-05-06 20:17 34.46518 26.23898 40161 ft 468 kts 313°
2026-05-06 20:18 34.51031 26.18241 40158 ft 468 kts 313°
2026-05-06 20:18 34.55562 26.12552 40159 ft 468 kts 313°
2026-05-06 20:19 34.60052 26.06906 40156 ft 467 kts 313°
2026-05-06 20:19 34.64555 26.01232 40152 ft 468 kts 313°
2026-05-06 20:20 34.69062 25.95545 40155 ft 468 kts 313°
2026-05-06 20:20 34.73582 25.89832 40152 ft 469 kts 313°
2026-05-06 20:21 34.78104 25.84107 40156 ft 468 kts 313°
2026-05-06 20:21 34.82599 25.78407 40150 ft 467 kts 313°
2026-05-06 20:22 34.87104 25.72683 40151 ft 468 kts 313°
2026-05-06 20:22 34.91575 25.66994 40145 ft 467 kts 313°
2026-05-06 20:23 34.96068 25.61266 40144 ft 468 kts 313°
2026-05-06 20:23 35.00542 25.55553 40160 ft 468 kts 313°
2026-05-06 20:24 35.05037 25.49804 40156 ft 467 kts 313°
2026-05-06 20:24 35.09497 25.44090 40163 ft 467 kts 313°
2026-05-06 20:25 35.13976 25.38342 40186 ft 468 kts 313°
2026-05-06 20:25 35.18430 25.32616 40183 ft 468 kts 312°
2026-05-06 20:26 35.22913 25.26843 40174 ft 468 kts 313°
2026-05-06 20:26 35.27380 25.21081 40167 ft 468 kts 313°
2026-05-06 20:27 35.31871 25.15277 40159 ft 468 kts 313°
2026-05-06 20:27 35.36312 25.09529 40179 ft 469 kts 313°
2026-05-06 20:28 35.40802 25.03707 40162 ft 470 kts 313°
2026-05-06 20:28 35.45292 24.97875 40159 ft 469 kts 313°
2026-05-06 20:29 35.49752 24.92072 40167 ft 467 kts 313°
2026-05-06 20:29 35.54192 24.86284 40161 ft 468 kts 313°
2026-05-06 20:30 35.60887 24.77539 40150 ft 469 kts 312°
2026-05-06 20:31 35.65335 24.71716 40153 ft 469 kts 312°
2026-05-06 20:31 35.69780 24.65888 40166 ft 469 kts 313°
2026-05-06 20:32 35.74235 24.60035 40155 ft 468 kts 313°
2026-05-06 20:32 35.78675 24.54192 40162 ft 468 kts 313°
2026-05-06 20:33 35.83106 24.48351 40143 ft 469 kts 313°
2026-05-06 20:33 35.87560 24.42468 40142 ft 470 kts 312°
2026-05-06 20:34 35.92015 24.36575 40148 ft 469 kts 312°
2026-05-06 20:34 35.96410 24.30750 40155 ft 467 kts 312°
2026-05-06 20:35 36.00845 24.24863 40148 ft 468 kts 312°
2026-05-06 20:35 36.05278 24.18966 40146 ft 468 kts 312°
2026-05-06 20:36 36.09694 24.13082 40155 ft 469 kts 312°
2026-05-06 20:36 36.14103 24.07198 40151 ft 469 kts 312°
2026-05-06 20:37 36.18544 24.01260 40159 ft 468 kts 312°
2026-05-06 20:37 36.22945 23.95365 40154 ft 468 kts 312°
2026-05-06 20:38 36.27345 23.89460 40151 ft 467 kts 312°
2026-05-06 20:38 36.31735 23.83560 40152 ft 466 kts 312°
2026-05-06 20:39 36.36131 23.77640 40144 ft 467 kts 312°
2026-05-06 20:39 36.40521 23.71716 40144 ft 468 kts 312°
2026-05-06 20:40 36.44886 23.65817 40139 ft 466 kts 312°
2026-05-06 20:40 36.49269 23.59883 40150 ft 467 kts 312°
2026-05-06 20:41 36.53642 23.53951 40144 ft 466 kts 312°
2026-05-06 20:41 36.58005 23.48023 40135 ft 466 kts 312°
2026-05-06 20:42 36.62382 23.42065 40136 ft 467 kts 312°
2026-05-06 20:42 36.66742 23.36118 40136 ft 466 kts 312°
2026-05-06 20:43 36.71086 23.30183 40136 ft 465 kts 311°
2026-05-06 20:43 36.75436 23.24229 40146 ft 465 kts 311°
2026-05-06 20:44 36.79803 23.18242 40139 ft 465 kts 311°
2026-05-06 20:44 36.84126 23.12303 40142 ft 465 kts 311°
2026-05-06 20:45 36.88451 23.06350 40139 ft 464 kts 311°
2026-05-06 20:45 36.92789 23.00370 40139 ft 465 kts 311°
2026-05-06 20:46 36.97121 22.94386 40140 ft 465 kts 311°
2026-05-06 20:46 37.01437 22.88414 40143 ft 465 kts 311°
2026-05-06 20:47 37.05765 22.82413 40156 ft 464 kts 311°
2026-05-06 20:47 37.10086 22.76413 40169 ft 464 kts 311°
2026-05-06 20:48 37.14326 22.70342 40177 ft 464 kts 306°
2026-05-06 20:48 37.17971 22.63725 40185 ft 465 kts 304°
2026-05-06 20:49 37.21596 22.57030 40186 ft 464 kts 304°
2026-05-06 20:49 37.25210 22.50340 40188 ft 464 kts 304°
2026-05-06 20:50 37.28805 22.43672 40183 ft 464 kts 304°
2026-05-06 20:50 37.32415 22.36963 40193 ft 464 kts 304°
2026-05-06 20:51 37.35999 22.30291 40193 ft 462 kts 303°
2026-05-06 20:51 37.39574 22.23621 40197 ft 462 kts 303°
2026-05-06 20:52 37.43153 22.16928 40178 ft 463 kts 303°
2026-05-06 20:52 37.46750 22.10190 40196 ft 463 kts 303°
2026-05-06 20:53 37.50331 22.03469 40179 ft 462 kts 303°
2026-05-06 20:53 37.53886 21.96782 40184 ft 461 kts 303°
2026-05-06 20:54 37.57433 21.90097 40191 ft 461 kts 303°
2026-05-06 20:54 37.60986 21.83388 40204 ft 461 kts 303°
2026-05-06 20:55 37.64516 21.76707 40199 ft 460 kts 303°
2026-05-06 20:55 37.68051 21.70004 40208 ft 459 kts 303°
2026-05-06 20:56 37.71579 21.63300 40193 ft 459 kts 303°
2026-05-06 20:56 37.75093 21.56609 40178 ft 458 kts 303°
2026-05-06 20:57 37.78612 21.49896 40166 ft 459 kts 303°
2026-05-06 20:57 37.82108 21.43213 40164 ft 458 kts 303°
2026-05-06 20:58 37.85628 21.36469 40149 ft 461 kts 303°
2026-05-06 20:58 37.89153 21.29705 40169 ft 461 kts 303°
2026-05-06 20:59 37.92686 21.22909 40151 ft 462 kts 303°
2026-05-06 20:59 37.96187 21.16160 40163 ft 462 kts 303°
2026-05-06 21:00 37.99695 21.09385 40154 ft 460 kts 303°
2026-05-06 21:00 38.03204 21.02593 40155 ft 460 kts 303°
2026-05-06 21:01 38.06696 20.95822 40157 ft 460 kts 303°
2026-05-06 21:01 38.10180 20.89052 40155 ft 460 kts 302°
2026-05-06 21:02 38.13665 20.82264 40164 ft 461 kts 302°
2026-05-06 21:02 38.17152 20.75459 40167 ft 460 kts 303°
2026-05-06 21:03 38.20612 20.68692 40166 ft 459 kts 303°
2026-05-06 21:03 38.24087 20.61882 40175 ft 460 kts 302°
2026-05-06 21:04 38.27560 20.55062 40186 ft 460 kts 302°
2026-05-06 21:04 38.31023 20.48246 40188 ft 460 kts 302°
2026-05-06 21:05 38.34477 20.41436 40184 ft 461 kts 302°
2026-05-06 21:05 38.37954 20.34566 40176 ft 460 kts 302°
2026-05-06 21:06 38.41393 20.27754 40182 ft 460 kts 302°
2026-05-06 21:06 38.44866 20.20861 40172 ft 461 kts 302°
2026-05-06 21:07 38.48305 20.14022 40168 ft 462 kts 302°
2026-05-06 21:07 38.51776 20.07104 40157 ft 464 kts 302°
2026-05-06 21:08 38.55228 20.00209 40154 ft 461 kts 302°
2026-05-06 21:08 38.58666 19.93328 40151 ft 462 kts 302°
2026-05-06 21:09 38.62106 19.86429 40155 ft 462 kts 301°
2026-05-06 21:09 38.65558 19.79489 40152 ft 463 kts 301°
2026-05-06 21:10 38.68991 19.72574 40148 ft 463 kts 301°
2026-05-06 21:10 38.72427 19.65638 40139 ft 463 kts 301°
2026-05-06 21:11 38.75860 19.58692 40147 ft 462 kts 301°
2026-05-06 21:11 38.79288 19.51742 40138 ft 462 kts 301°
2026-05-06 21:12 38.82712 19.44784 40138 ft 463 kts 301°
2026-05-06 21:12 38.86127 19.37830 40131 ft 462 kts 301°
2026-05-06 21:13 38.89543 19.30859 40136 ft 464 kts 301°
2026-05-06 21:13 38.92979 19.23831 40138 ft 466 kts 301°
2026-05-06 21:14 38.96400 19.16819 40136 ft 467 kts 301°
2026-05-06 21:14 38.99845 19.09742 40138 ft 467 kts 301°
2026-05-06 21:15 39.03264 19.02702 40128 ft 467 kts 301°
2026-05-06 21:15 39.06715 18.95581 40134 ft 466 kts 301°
2026-05-06 21:16 39.10110 18.88561 40147 ft 466 kts 301°
2026-05-06 21:16 39.13537 18.81460 40123 ft 464 kts 300°
2026-05-06 21:17 39.16931 18.74409 40129 ft 464 kts 300°
2026-05-06 21:17 39.20305 18.67385 40119 ft 465 kts 300°
2026-05-06 21:18 39.23690 18.60323 40121 ft 464 kts 300°
2026-05-06 21:18 39.27067 18.53261 40116 ft 464 kts 300°
2026-05-06 21:19 39.30444 18.46183 40123 ft 463 kts 300°
2026-05-06 21:19 39.33804 18.39126 40117 ft 464 kts 300°
2026-05-06 21:20 39.37184 18.32010 40127 ft 464 kts 299°
2026-05-06 21:20 39.40531 18.24948 40115 ft 463 kts 299°
2026-05-06 21:21 39.43879 18.17870 40113 ft 463 kts 299°
2026-05-06 21:21 39.47230 18.10765 40120 ft 463 kts 299°
2026-05-06 21:22 39.50567 18.03678 40120 ft 462 kts 299°
2026-05-06 21:22 39.53914 17.96551 40107 ft 463 kts 299°
2026-05-06 21:23 39.57239 17.89457 40103 ft 463 kts 298°
2026-05-06 21:23 39.60574 17.82324 40090 ft 462 kts 298°
2026-05-06 21:24 39.63892 17.75211 40074 ft 462 kts 298°
2026-05-06 21:24 39.67205 17.68094 40078 ft 462 kts 299°
2026-05-06 21:25 39.70504 17.60990 40078 ft 463 kts 298°
2026-05-06 21:25 39.73816 17.53843 40070 ft 463 kts 298°
2026-05-06 21:26 39.77118 17.46699 40070 ft 463 kts 298°
2026-05-06 21:26 39.80426 17.39527 40059 ft 463 kts 298°
2026-05-06 21:27 39.83738 17.32329 40066 ft 464 kts 297°
2026-05-06 21:27 39.87038 17.25142 40071 ft 464 kts 298°
2026-05-06 21:28 39.88898 17.21082 40061 ft 465 kts 298°